Location: Newark
(11.4947°N, 0.1467°E)
Time: 15:25:15
(UTC+00:00)

Hubble Space Telescope - Pass Details

Date: 26 November 2019
Orbit: 536 x 540 km, 28.5° (Epoch: 07 December)

Event Time Altitude Azimuth Distance (km) Brightness Sun altitude
Rises 18:29:25 0° 320° (NW) 2,665 4.6 -13.9°
Reaches altitude 10° 18:33:13 10° 355° (N) 1,775 3.3 -14.8°
Maximum altitude 18:34:33 11° 14° (NNE) 1,693 3.0 -15.1°
Enters shadow 18:34:39 11° 16° (NNE) 1,693 3.0 -15.1°
